Date String (YYYY-MM-DD hh:mm:ss) UTC,Instrument flags,Ambient pressure (hPa),Sample flow (lpm),Bypass flow (lpm),Sample temperature (°C),Ambient temperature (°C),ASC tube jacket temperature (°C),LED temperature (°C),Box temperature (°C),Sample RH (%),Span deviation,Mass concentration (μg/m³),Mass concentration (μg/m³),Mass concentration (μg/m³)
DateTimeUTC,F1_M11,P_M11,Q1_M11,Q2_M11,T1_M11,T2_M11,T3_M11,T4_M11,T5_M11,U1_M11,ZSPAN_M11,X0_M11,X2_M11,X1_M11
2022-02-16 02:00:00,,0814.4,4.98,0.00,29.1,28.2,00.0,38.1,30.8,07.0,0000.0,0020.61,0009.82,0008.73
2022-02-16 02:01:00,,0814.6,5.02,0.00,29.1,28.2,00.0,38.1,30.9,06.8,0000.0,0020.81,0009.59,0008.51
2022-02-16 02:02:00,,0814.9,4.98,0.00,29.1,28.2,00.0,38.1,30.9,06.9,0000.0,0021.98,0009.52,0008.44
2022-02-16 02:03:00,,0815.0,5.01,0.00,29.1,28.2,00.0,38.1,30.9,06.9,0000.0,0021.96,0009.48,0008.40
2022-02-16 02:04:00,,0815.0,4.98,0.00,29.1,28.2,00.0,38.1,30.9,06.8,0000.0,0021.67,0009.38,0008.32
2022-02-16 02:05:00,,0815.0,5.01,0.00,29.1,28.2,00.0,38.1,30.9,06.8,0000.0,0020.97,0009.33,0008.25
2022-02-16 02:06:00,,0815.0,4.99,0.00,29.1,28.2,00.0,38.1,30.9,06.8,0000.0,0020.49,0009.27,0008.15
2022-02-16 02:07:00,,0814.8,5.01,0.00,29.1,28.2,00.0,38.1,30.9,06.7,0000.0,0020.07,0009.18,0008.06
2022-02-16 02:08:00,,0814.6,5.01,0.00,29.1,28.2,00.0,38.1,30.9,06.7,0000.0,0020.00,0009.08,0007.96
2022-02-16 02:09:00,,0814.8,4.99,0.00,29.1,28.2,00.0,38.1,30.9,06.7,0000.0,0019.20,0008.91,0007.83
2022-02-16 02:10:00,,0814.6,5.01,0.00,29.1,28.2,00.0,38.1,30.9,06.7,0000.0,0018.88,0008.75,0007.72
2022-02-16 02:11:00,,0814.7,4.98,0.00,29.1,28.2,00.0,38.1,30.9,07.4,0000.0,0018.99,0008.78,0007.73
2022-02-16 02:12:00,,0814.7,5.01,0.00,29.2,28.2,00.0,38.1,30.9,08.0,0000.0,0019.37,0009.01,0007.96
2022-02-16 02:13:00,,0814.7,4.99,0.00,29.1,28.2,00.0,38.1,30.9,08.1,0000.0,0019.98,0009.31,0008.18
2022-02-16 02:14:00,,0814.8,5.00,0.00,29.1,28.2,00.0,38.1,30.9,08.2,0000.0,0022.15,0009.60,0008.38
2022-02-16 02:15:00,,0814.8,5.00,0.00,29.1,28.2,00.0,38.1,30.9,08.3,0000.0,0024.19,0009.84,0008.60
2022-02-16 02:16:00,,0814.8,4.98,0.00,29.1,28.2,00.0,38.1,30.9,08.3,0002.0,0025.25,0010.12,0008.86
2022-02-16 02:17:00,,0814.8,5.02,0.00,29.1,28.2,00.0,38.1,30.9,08.3,0005.2,0026.97,0010.46,0009.15
2022-02-16 02:18:00,,0814.8,4.99,0.00,29.1,28.2,00.0,38.1,30.9,08.3,0005.0,0028.52,0010.81,0009.42
2022-02-16 02:19:00,,0814.8,5.00,0.00,29.1,28.2,00.0,38.1,30.9,08.2,0005.0,0028.62,0011.15,0009.70
2022-02-16 02:20:00,,0814.8,4.99,0.00,29.1,28.2,00.0,38.1,30.9,08.0,0004.3,0029.15,0011.44,0009.95
2022-02-16 02:21:00,,0814.8,5.00,0.00,29.1,28.2,00.0,38.1,30.9,07.9,0004.0,0030.95,0011.72,0010.17
2022-02-16 02:22:00,,0814.8,5.00,0.00,29.1,28.2,00.0,38.1,30.9,07.9,0003.9,0031.66,0011.83,0010.28
2022-02-16 02:23:00,,0814.8,5.02,0.00,29.1,28.2,00.0,38.1,30.9,07.9,0004.5,0031.66,0011.84,0010.24
2022-02-16 02:24:00,,0814.8,4.99,0.00,29.1,28.2,00.0,38.1,30.9,07.9,0004.7,0031.27,0011.78,0010.18
2022-02-16 02:25:00,,0814.8,5.01,0.00,29.1,28.2,00.0,38.1,30.9,07.9,0004.5,0029.33,0011.69,0010.11
2022-02-16 02:26:00,,0814.8,5.00,0.00,29.1,28.2,00.0,38.1,30.9,07.9,0004.4,0027.89,0011.63,0010.05
2022-02-16 02:27:00,,0814.7,5.00,0.00,29.1,28.2,00.0,38.1,30.9,07.9,0004.9,0028.21,0011.61,0009.98
2022-02-16 02:28:00,,0814.7,5.01,0.00,29.1,28.2,00.0,38.1,30.9,07.9,0004.7,0026.49,0011.54,0009.91
2022-02-16 02:29:00,,0814.7,4.99,0.00,29.1,28.2,00.0,38.1,30.9,07.9,0004.6,0026.90,0011.48,0009.84
2022-02-16 02:30:00,,0814.7,5.01,0.00,29.1,28.2,00.0,38.1,30.9,07.9,0005.0,0025.80,0011.42,0009.79
2022-02-16 02:31:00,,0814.7,4.99,0.00,29.1,28.2,00.0,38.1,30.9,07.7,0005.0,0025.94,0011.36,0009.73
2022-02-16 02:32:00,,0814.8,5.02,0.00,29.1,28.2,00.0,38.1,30.9,07.8,0005.1,0024.70,0011.32,0009.71
2022-02-16 02:33:00,,0814.7,4.98,0.00,29.1,28.2,00.0,38.1,30.9,07.9,0005.5,0024.90,0011.40,0009.71
2022-02-16 02:34:00,,0814.7,5.01,0.00,29.1,28.2,00.0,38.1,30.9,07.8,0005.6,0024.61,0011.35,0009.69
2022-02-16 02:35:00,,0814.7,4.98,0.00,29.1,28.2,00.0,38.1,30.9,07.8,0005.5,0023.57,0011.30,0009.68
2022-02-16 02:36:00,,0814.7,5.01,0.00,29.1,28.2,00.0,38.1,30.9,07.8,0005.6,0023.88,0011.25,0009.67
2022-02-16 02:37:00,,0814.8,4.99,0.00,29.1,28.2,00.0,38.1,30.9,07.7,0005.5,0024.04,0011.27,0009.65
2022-02-16 02:38:00,,0814.7,5.01,0.00,29.1,28.2,00.0,38.1,30.9,07.6,0005.5,0023.60,0011.22,0009.62
2022-02-16 02:39:00,,0814.7,4.99,0.00,29.1,28.2,00.0,38.1,30.9,07.4,0005.6,0024.00,0011.18,0009.58
2022-02-16 02:40:00,,0814.7,5.00,0.00,29.1,28.1,00.0,38.1,30.8,07.4,0005.4,0022.71,0011.09,0009.54
2022-02-16 02:41:00,,0814.7,4.99,0.00,29.1,28.1,00.0,38.1,30.8,07.2,0005.1,0023.72,0011.01,0009.48
2022-02-16 02:42:00,,0814.6,5.01,0.00,29.1,28.1,00.0,38.1,30.8,07.3,0005.5,0023.13,0011.01,0009.46
2022-02-16 02:43:00,,0814.6,4.99,0.00,29.1,28.1,00.0,38.1,30.8,07.4,0005.3,0023.30,0011.07,0009.46
2022-02-16 02:44:00,,0814.7,5.01,0.00,29.1,28.1,00.0,38.1,30.8,07.4,0004.7,0023.07,0011.02,0009.45
2022-02-16 02:45:00,,0814.7,4.98,0.00,29.1,28.1,00.0,38.0,30.8,07.1,0004.7,0023.30,0011.00,0009.40
2022-02-16 02:46:00,,0814.6,5.02,0.00,29.1,28.1,00.0,38.0,30.8,07.4,0004.8,0024.19,0010.94,0009.34
2022-02-16 02:47:00,,0814.7,4.99,0.00,29.1,28.1,00.0,38.0,30.8,07.2,0004.5,0024.68,0010.84,0009.29
2022-02-16 02:48:00,,0814.8,5.01,0.00,29.1,28.1,00.0,38.0,30.8,07.2,0004.4,0025.08,0010.74,0009.23
2022-02-16 02:49:00,,0814.8,4.99,0.00,29.0,28.1,00.0,38.0,30.8,07.2,0003.2,0024.59,0010.68,0009.18
2022-02-16 02:50:00,,0814.8,5.01,0.00,29.0,28.1,00.0,38.0,30.8,07.0,0000.0,0024.71,0010.59,0009.14
2022-02-16 02:51:00,,0814.7,4.98,0.00,29.0,28.1,00.0,38.0,30.7,05.8,0000.0,0024.07,0010.30,0008.90
2022-02-16 02:52:00,,0814.8,5.02,0.00,29.0,28.1,00.0,38.0,30.7,05.4,0000.0,0022.01,0009.81,0008.49
2022-02-16 02:53:00,,0814.7,4.99,0.00,29.0,28.1,00.0,38.0,30.7,05.1,0000.0,0020.89,0009.21,0007.98
2022-02-16 02:54:00,,0814.7,5.00,0.00,29.0,28.1,00.0,38.0,30.6,05.2,0000.0,0019.47,0008.54,0007.43
2022-02-16 02:55:00,,0814.7,5.01,0.00,28.9,28.1,00.0,38.0,30.6,05.3,0000.0,0018.25,0007.92,0006.87
2022-02-16 02:56:00,,0814.7,5.00,0.00,28.9,28.1,00.0,38.0,30.6,05.4,0000.0,0017.10,0007.35,0006.40
2022-02-16 02:57:00,,0814.7,5.01,0.00,28.9,28.1,00.0,38.0,30.7,05.2,0000.0,0015.25,0006.74,0005.88
2022-02-16 02:58:00,,0814.7,4.99,0.00,28.9,28.1,00.0,38.0,30.7,05.3,0000.0,0013.36,0006.19,0005.39
2022-02-16 02:59:00,,0814.7,5.01,0.00,28.9,28.1,00.0,38.0,30.7,05.3,0000.0,0011.95,0005.72,0004.95
